Search your local weather  

 

Hazardous Weather Conditions

No active alerts for SAN ANTONIO, TEXAS

Current Conditions: SAN ANTONIO, TEXAS

Fair


38.0 F

Last Updated on Dec 11 2019, 8:55 pm CST
Humidity: 82%
Wind Speed: N 0.0 mph
Barometer 30.41 in
Dewpoint: 32.7 F
Visibility: 10.00 mi
Precip: --
Heat Index: NA
Wind Chill: NA
Current conditions at:

Castroville Municipal Airport, TX (KCVB)

Lat: 29.34192 Lon: -98.8509

Local Radar Image active severe weather and emergency alerts image image weather storm and storm spotter reports image weather observation monitoring service image
Local
Radar
Active
Alerts
Storm Reports Weather
Monitoring

5 Day Forecast for SAN ANTONIO, TEXAS (78201)

Wednesday

Partly Sunny

High 57 °F
Wednesday
Night
Mostly Cloudy

Low 39 °F
Thursday

Mostly Cloudy

High 61 °F
Thursday
Night
Mostly Clear

Low 45 °F
Friday

Mostly Sunny

High 73 °F
Friday
Night
Clear

Low 47 °F
Saturday

Clear

High 73 °F
Saturday
Night
Mostly Clear

Low 49 °F
Sunday

Showers
High 75 °F

Sign-up For Email & Text Message Weather Alert Notification Services



Advertise Here

Observation History for SAN ANTONIO, TEXAS


Time Wind
(mph)
Vis
(mi)
Weather Precip (in) Temperature (F) Relative
Humidity
Wind
Chill
(°F)
Heat
Index
(°F)
Pressure
Air Dwpt altimeter
(in)
sea level
(mb)
8:55 pm CST N 0.0 10.00 Fair -- 38.0 32.7 82% NA NA 30.41 M
8:35 pm CST N 0.0 10.00 Fair -- 40.0 32.5 74% NA NA 30.41 M
7:55 pm CST N 0.0 10.00 Fair -- 42.0 32.4 69% NA NA 30.41 M
6:55 pm CST N 0.0 10.00 Fair -- 47.0 34.9 62% NA NA 30.41 M
5:55 pm CST E 3.5 10.00 Fair -- 51.0 34.9 55% NA NA 30.40 M
5:35 pm CST E 3.5 10.00 Fair -- 52.0 34.7 51% NA NA 30.40 M
4:55 pm CST E 5.8 10.00 Fair -- 54.0 33.6 46% 53 NA 30.41 M
4:35 pm CST E 9.2 10.00 Fair -- 55.0 32.9 44% 52 NA 30.41 M
3:55 pm CST E 8.1 10.00 Fair -- 55.0 32.9 43% 53 NA 30.40 M
2:55 pm CST E 6.9 10.00 Fair -- 55.0 36.5 50% 53 NA 30.42 M
1:55 pm CST E 9.2 10.00 Fair -- 52.0 36.3 56% 49 NA 30.44 M
1:35 pm CST E 5.8 10.00 Fair -- 53.0 36.5 54% 51 NA 30.45 M
12:55 pm CST SE 6.9 10.00 Fair -- 51.0 36.1 56% 48 NA 30.48 M
11:55 am CST N 0.0 10.00 Fair -- 49.0 35.2 59% NA NA 30.52 M
11:35 am CST E 5.8 10.00 Fair -- 48.0 35.4 61% 45 NA 30.53 M
10:55 am CST E 5.8 10.00 Partly Cloudy -- 48.0 34.9 60% 45 NA 30.55 M
9:55 am CST NE 8.1 10.00 Partly Cloudy -- 44.0 35.1 70% 39 NA 30.55 M
8:55 am CST N 0.0 10.00 Fair -- 38.0 37.9 98% NA NA 30.54 M
7:55 am CST NW 3.5 10.00 Fair -- 32.0 32.0 100% NA NA 30.53 M
7:35 am CST N 0.0 10.00 Fair -- 31.0 30.7 99% NA NA 30.52 M
6:55 am CST NW 4.6 10.00 Fair -- 31.0 30.9 99% 26 NA 30.50 M
6:35 am CST NW 3.5 10.00 Fair -- 31.0 30.6 99% NA NA 30.50 M
5:55 am CST N 3.5 10.00 Fair -- 32.0 31.6 99% NA NA 30.48 M
4:55 am CST NW 4.6 10.00 Fair -- 32.0 31.8 99% 27 NA 30.47 M

Regional Weather Observation

San Antonio, San Antonio International Airport, TX (KSAT)

Fair
45.0 F

San Antonio - Kelly Field, TX (KSKF)

Fair
42.0 F

San Antonio, Stinson Municipal Airport, TX (KSSF)

Fair
41.0 F

Randolph Air Force Base, TX (KRND)

Fair
38.0 F

New Braunfels Regional Airport, TX (KBAZ)

Fair
42.0 F

Kerrville, Kerrville Municipal Airport/Louis Schreiner Field, TX (KERV)

Fair
38.0 F

Advertise Here


Advertise Here